Regional Weather Roundup
Issued by NWS

Home | Current Version | Previous Version | Text Only | Print | Product List | Glossary Off
Versions: 1 2 3 4 5 6 7 8 9 10 11 12 13 14 15 16 17 18 19 20 21 22 23 24 25 26 27 28 29 30 31 32 33 34 35 36 37 38 39 40 41 42 43 44 45 46 47 48 49 50

000
ASUS43 KLMK 101902
RWRKY
KENTUCKY REGIONAL WEATHER ROUNDUP
NATIONAL WEATHER SERVICE LOUISVILLE KY
200 PM EST WED FEB 10 2016

NOTE "FAIR" INDICATES FEW OR NO CLOUDS BELOW 12,000 FEET
WITH NO SIGNIFICANT WEATHER AND/OR OBSTRUCTIONS TO VISIBILITY.

KYZ001>023-026-027-061>063-070>075-102000-
WESTERN AND SOUTH CENTRAL KENTUCKY

CITY           SKY/WX    TMP DP  RH WIND       PRES   REMARKS
PADUCAH        CLOUDY    25  10  53 W9        30.18F WCI  15
HENDERSON      MOSUNNY   25   9  50 W13       30.16F WCI  13
OWENSBORO      MOSUNNY   22   9  57 W14       30.16F WCI   9
HOPKINSVILLE   NOT AVBL
BOWLING GREEN  MOSUNNY   24   8  50 W8        30.15F WCI  15
GLASGOW        NOT AVBL
$$

KYZ024-025-028>034-038-045-046-053-102000-
NORTH CENTRAL KENTUCKY

CITY           SKY/WX    TMP DP  RH WIND       PRES   REMARKS
LOUISVILLE/SDF PTSUNNY   21   7  54 W9G18     30.10F WCI  11
LOUISVILLE/LOU MOSUNNY   20   6  55 W8        30.10F WCI  10
FORT KNOX      PTSUNNY   20   8  60 W9        30.08F WCI   9
$$

KYZ035>037-039>044-047>052-055>060-089>105-102000-
NORTHEAST KENTUCKY

CITY           SKY/WX    TMP DP  RH WIND       PRES   REMARKS
LEXINGTON      FLURRIES  17   7  64 SW16      30.06S WCI   2
COVINGTON      CLOUDY    17   7  64 W17       30.02F WCI   1
FRANKFORT        N/A     18   5  57 W10       30.06F WCI   6
$$

KYZ054-064>069-076>088-106>120-102000-
SOUTHEAST KENTUCKY

CITY           SKY/WX    TMP DP  RH WIND       PRES   REMARKS
JACKSON        LGT SNOW  18  11  74 SW6       30.00S WCI  10
LONDON         CLOUDY    18   6  59 W18       30.06F WCI   2
SOMERSET       NOT AVBL
MIDDLESBORO    NOT AVBL
MONTICELLO     CLOUDY    20   8  60 W18       30.12F WCI   5
$$




USA.gov is the U.S. government's official web portal to all federal, state and local government web resources and services.